This demonstration page uses our WeatherBlox Daily Observations layout. Learn more.

Left ArrowRight Arrow

Hourly Observations for January 19, 2016

Temp ( °F °C ) Dew Point ( °F °C ) Humidity (%) Winds ( mph kmh ) Pressure ( in mb ) Visibility ( mi km ) Precip ( " mm )
12:59 am 00:59 Clear 21 -6.1 3 -16.1 45 45 NW 16 26 30.25 1024 10 16 0.00 0.00
1:59 am 01:59 Clear 20 -6.7 1 -17.2 43 43 NW 21 33 30.26 1025 10 16 0.00 0.00
2:59 am 02:59 Clear 19 -7.2 1 -17.2 45 45 NW 17 28 30.26 1025 10 16 0.00 0.00
3:59 am 03:59 Clear 19 -7.2 1 -17.2 45 45 NW 16 26 30.27 1025 10 16 0.00 0.00
4:59 am 04:59 Clear 19 -7.2 2 -16.7 47 47 NW 18 30 30.28 1025 10 16 0.00 0.00
5:59 am 05:59 Clear 19 -7.2 2 -16.7 47 47 NW 20 31 30.29 1026 10 16 0.00 0.00
6:59 am 06:59 Clear 19 -7.2 2 -16.7 47 47 NW 16 26 30.29 1026 10 16 0.00 0.00
7:59 am 07:59 Mostly Sunny 20 -6.7 1 -17.2 43 43 NW 15 24 30.31 1027 7 11 0.00 0.00
8:59 am 08:59 Mostly Sunny 22 -5.6 2 -16.7 42 42 NW 18 30 30.32 1027 7 11 0.00 0.00
9:59 am 09:59 Mostly Sunny 24 -4.4 2 -16.7 38 38 NW 18 30 30.33 1027 7 11 0.00 0.00
10:59 am 10:59 Mostly Sunny 25 -3.9 1 -17.2 35 35 NW 20 31 30.33 1027 7 11 0.00 0.00
11:59 am 11:59 Mostly Sunny 27 -2.8 2 -16.7 34 34 NW 16 26 30.32 1027 7 11 0.00 0.00
12:59 pm 12:59 Mostly Sunny 29 -1.7 4 -15.6 34 34 WNW 22 35 30.30 1026 7 11 0.00 0.00
1:59 pm 13:59 Mostly Sunny 30 -1.1 3 -16.1 31 31 NW 17 28 30.29 1026 7 11 0.00 0.00
2:59 pm 14:59 Mostly Sunny 30 -1.1 3 -16.1 31 31 NW 18 30 30.29 1026 7 11 0.00 0.00
3:59 pm 15:59 Mostly Sunny 29 -1.7 2 -16.7 31 31 NW 20 31 30.31 1026 7 11 0.00 0.00
4:59 pm 16:59 Mostly Sunny 27 -2.8 2 -16.7 34 34 WNW 17 28 30.33 1027 7 11 0.00 0.00
5:59 pm 17:59 Clear 27 -2.8 3 -16.1 35 35 NW 16 26 30.35 1028 7 11 0.00 0.00
6:59 pm 18:59 Clear 27 -2.8 3 -16.1 35 35 NW 17 28 30.36 1028 10 16 0.00 0.00
7:59 pm 19:59 Clear 27 -2.8 3 -16.1 35 35 NW 20 31 30.36 1028 10 16 0.00 0.00
8:59 pm 20:59 Clear 26 -3.3 3 -16.1 37 37 NW 15 24 30.37 1029 10 16 0.00 0.00
9:59 pm 21:59 Mostly Clear 26 -3.3 4 -15.6 38 38 NW 9 15 30.38 1029 10 16 0.00 0.00
10:59 pm 22:59 Clear 26 -3.3 4 -15.6 38 38 NW 12 19 30.40 1029 10 16 0.00 0.00
11:59 pm 23:59 Clear 25 -3.9 5 -15 42 42 NW 12 19 30.38 1029 10 16 0.00 0.00

Powered by AerisWeather